This is the latest recevied weather packets stored in our database for station/object K1BES. If no packets are shown the sender has not sent any weather packets the latest 10 day(s).
| Time | Temp. | Humidity | Pressure | Rain* | Wind** | Luminosity | Snow |
|---|---|---|---|---|---|---|---|
| 1788438425 | 26.11° C | 97% | 1016.5 hPa | 0 mm | - | 86 W/m² | - |
| 1788438120 | 26.11° C | 97% | 1016.4 hPa | 0 mm | - | 71 W/m² | - |
| 1788437818 | 25.56° C | 97% | 1016.2 hPa | 0 mm | - | 55 W/m² | - |
| 1788437515 | 25.56° C | 97% | 1016.4 hPa | 0 mm | - | 51 W/m² | - |
| 1788437214 | 25.56° C | 97% | 1016.3 hPa | 0 mm | - | 51 W/m² | - |
| 1788436908 | 25.56° C | 97% | 1016.2 hPa | 0 mm | - | 51 W/m² | - |
| 1788436607 | 25° C | 97% | 1016.1 hPa | 0 mm | - | 51 W/m² | - |
| 1788436302 | 25° C | 97% | 1016.1 hPa | 0 mm | - | 50 W/m² | - |
| 1788435997 | 25° C | 98% | 1015.8 hPa | 0 mm | - | 46 W/m² | - |
| 1788435692 | 25° C | 97% | 1016 hPa | 0 mm | - | 39 W/m² | - |
| 1788435388 | 25° C | 97% | 1015.9 hPa | 0 mm | - | 29 W/m² | - |
| 1788435084 | 25° C | 97% | 1015.6 hPa | 0 mm | - | 20 W/m² | - |
| 1788434780 | 25° C | 97% | 1015.3 hPa | 0 mm | - | 13 W/m² | - |
| 1788434480 | 25° C | 97% | 1015.6 hPa | 0 mm | - | 8 W/m² | - |
| 1788434179 | 25° C | 97% | 1015.4 hPa | 0 mm | - | 4 W/m² | - |
| 1788433874 | 25° C | 97% | 1015.5 hPa | 0 mm | - | 2 W/m² | - |
| 1788433571 | 25° C | 97% | 1015.2 hPa | 0 mm | - | 1 W/m² | - |
| 1788433266 | 25° C | 97% | 1015.5 hPa | 0 mm | - | 0 W/m² | - |
| 1788432961 | 25° C | 97% | 1015.4 hPa | 0 mm | - | 0 W/m² | - |
| 1788432655 | 25° C | 97% | 1015.4 hPa | 0 mm | - | 0 W/m² | - |
| 1788432355 | 25° C | 97% | 1015.5 hPa | 0 mm | - | 0 W/m² | - |
| 1788432051 | 25° C | 97% | 1015.4 hPa | 0 mm | - | 0 W/m² | - |
| 1788431747 | 25° C | 97% | 1015.5 hPa | 0 mm | - | 0 W/m² | - |
| 1788431443 | 25° C | 97% | 1015.5 hPa | 0 mm | - | 0 W/m² | - |
| 1788431138 | 25° C | 97% | 1015.4 hPa | 0 mm | - | 0 W/m² | - |
* Rain latest hour (hover to see other rain measurements)
** Current wind speed in m/s (hover to see current wind gust speed)